Location: *
(60.1759°S, 155.0663°W)
Time: 15:03:08
(UTC+00:00)

Cosmos 1464 Rocket - Pass Details

Date: 17 September 2019
Orbit: 953 x 1001 km, 82.9° (Epoch: 21 October)

Event Time Altitude Azimuth Distance (km) Brightness Sun altitude
Exits shadow 12:18:21 55° 26° (NNE) 1,177 4.2 -27.4°
Maximum altitude 12:19:38 70° 83° (E) 1,054 4.1 -27.3°
Drops below altitude 10° 12:25:54 10° 164° (SSE) 2,750 7.2 -26.9°
Sets 12:28:26 0° 166° (SSE) 3,696 8.1 -26.7°
